User: anonymous   Login
Location: Cluny
(50.9333°N, 112.8167°W)
Time: 03:58:43
(UTC-06:00)
Language:

Cosmos 1743 Rocket - Orbit

View from above orbital plane
View from above orbital plane
View from above satellite
View from above satellite

Ground track
Ground track

The orbit data is extracted from the following two-line orbital elements,

1 16720U 86034B   17114.97535727 +.00000149 +00000-0 +15254-4 0  9991
2 16720 082.5515 291.1061 0018686 277.7298 246.0031 14.83285468650281
Epoch (UTC): 24 April 2017 23:24:30
Eccentricity: 0.0018686
inclination: 82.5515°
perigee height: 606 km
apogee height: 632 km
right ascension of ascending node: 291.1061°
argument of perigee: 277.7298°
revolutions per day: 14.83285468
mean anomaly at epoch: 246.0031°
orbit number at epoch: 65028

The dashed part of the orbit path shows where the satellite is in the earth's shadow,  

DLR